User: anonymous   Login
Location: Caltech
(34.1382°N, 118.1253°W)
Time: 01:29:11
(UTC-07:00)
Language:

Cosmos 1484 Rocket - Orbit

View from above orbital plane
View from above orbital plane
View from above satellite
View from above satellite

Ground track
Ground track

The orbit data is extracted from the following two-line orbital elements,

1 14208U 83075B   14296.72085476  .00005163  00000-0  33817-3 0  1575
2 14208 097.4113 328.9825 0041289 220.7943 139.0192 15.07445763701566
Epoch (UTC): 23 October 2014 17:18:01
Eccentricity: 0.0041289
inclination: 97.4113°
perigee height: 515 km
apogee height: 572 km
right ascension of ascending node: 328.9825°
argument of perigee: 220.7943°
revolutions per day: 15.07445763
mean anomaly at epoch: 139.0192°
orbit number at epoch: 70156

The dashed part of the orbit path shows where the satellite is in the earth's shadow,  

DLR